Temp
-13 -13 -13 -13 -13 -13 -13 -12 -12 -13 -13 -13 -13 -14 -15 -15 -16 -17 -17 -17 -15 -14 -13 -13 -13 -13 -13 -14 -13 -13 -13 -12 -13 -13 -13 -12 -12 -11 -11 -12 -13 -13 -13 -13
-14 -14 -14 -13 -13 -13 -13 -13 -13 -13 -14 -14 -15 -17 -19 -20 -21 -21 -21 -21 -21 -21 -19 -18 -15 -14 -14 -14 -14 -14 -13 -13 -13 -13 -13 -13 -12 -11 -12 -12 -12 -13 -13 -13
-14 -14 -13 -13 -13 -13 -14 -14 -14 -15 -15 -18 -21 -20 -21 -20 -20 -20 -20 -21 -21 -21 -22 -22 -21 -18 -15 -15 -14 -14 -14 -14 -13 -13 -13 -13 -13 -12 -12 -11 -12 -12 -13 -13
-14 -14 -13 -13 -14 -14 -14 -14 -15 -16 -19 -21 -21 -21 -21 -21 -21 -21 -21 -21 -22 -22 -22 -22 -23 -22 -21 -17 -15 -14 -14 -14 -14 -13 -13 -13 -12 -13 -12 -12 -12 -12 -12 -12
-14 -14 -13 -14 -14 -14 -14 -15 -16 -19 -21 -21 -21 -21 -21 -21 -21 -21 -21 -21 -22 -22 -23 -22 -22 -22 -22 -22 -18 -15 -15 -14 -14 -14 -13 -13 -12 -11 -13 -12 -12 -12 -12 -12
-14 -14 -14 -14 -14 -14 -15 -16 -20 -21 -21 -20 -20 -21 -21 -21 -21 -21 -22 -22 -21 -21 -22 -22 -22 -21 -22 -22 -21 -18 -15 -15 -14 -14 -14 -13 -12 -12 -12 -13 -13 -12 -12 -12
-14 -14 -14 -15 -14 -15 -16 -20 -21 -20 -20 -20 -20 -21 -20 -20 -20 -21 -21 -21 -22 -21 -20 -20 -20 -22 -21 -22 -21 -19 -17 -15 -15 -14 -14 -13 -13 -13 -13 -13 -13 -13 -13 -13
-15 -14 -15 -15 -15 -15 -18 -20 -21 -20 -20 -20 -20 -21 -20 -20 -21 -22 -22 -21 -21 -21 -21 -20 -20 -20 -21 -20 -21 -20 -18 -16 -15 -14 -14 -14 -13 -13 -13 -13 -13 -15 -13 -13
-15 -15 -15 -15 -15 -17 -19 -19 -20 -20 -20 -19 -19 -20 -19 -21 -22 -22 -21 -20 -20 -20 -20 -20 -20 -20 -20 -20 -21 -21 -18 -17 -15 -15 -14 -14 -14 -14 -13 -13 -14 -14 -14 -13
-15 -16 -16 -16 -16 -18 -19 -20 -20 -20 -20 -20 -19 -20 -20 -21 -21 -21 -20 -20 -20 -21 -21 -21 -21 -20 -20 -20 -20 -21 -19 -17 -15 -15 -15 -14 -14 -14 -14 -14 -13 -13 -13 -13
-15 -16 -17 -17 -17 -19 -19 -20 -20 -20 -21 -21 -19 -21 -20 -21 -21 -20 -20 -20 -20 -20 -20 -20 -21 -20 -19 -19 -20 -21 -20 -17 -16 -15 -15 -15 -14 -14 -14 -14 -13 -14 -14 -13
-15 -16 -17 -18 -19 -19 -20 -19 -20 -20 -20 -21 -21 -20 -21 -21 -21 -21 -20 -19 -19 -20 -20 -20 -20 -20 -19 -19 -20 -21 -20 -18 -16 -15 -15 -15 -15 -14 -14 -15 -14 -14 -13 -13
-16 -16 -16 -17 -18 -20 -19 -19 -20 -20 -20 -21 -21 -20 -21 -21 -21 -20 -20 -20 -20 -20 -20 -21 -20 -19 -19 -19 -20 -21 -21 -19 -17 -16 -15 -15 -15 -15 -15 -15 -15 -14 -14 -14
-16 -17 -17 -18 -19 -20 -19 -19 -20 -20 -20 -20 -21 -19 -20 -21 -20 -20 -20 -20 -20 -20 -20 -21 -20 -19 -19 -19 -20 -21 -21 -20 -18 -16 -15 -15 -15 -15 -15 -15 -15 -15 -14 -14
-16 -17 -18 -18 -19 -20 -20 -20 -20 -20 -21 -20 -20 -20 -20 -20 -20 -21 -21 -20 -19 -20 -20 -20 -20 -20 -19 -20 -21 -21 -21 -20 -18 -16 -15 -15 -15 -15 -15 -16 -16 -15 -15 -15
-17 -17 -17 -19 -19 -20 -20 -20 -20 -20 -21 -20 -20 -20 -21 -21 -21 -21 -20 -20 -19 -20 -20 -20 -20 -19 -20 -20 -21 -21 -20 -20 -18 -16 -16 -15 -15 -15 -15 -16 -16 -16 -16 -15
-17 -17 -17 -18 -19 -20 -19 -20 -20 -20 -20 -20 -20 -21 -21 -21 -20 -20 -21 -21 -20 -19 -20 -20 -20 -20 -20 -20 -21 -21 -20 -19 -19 -18 -17 -17 -17 -17 -16 -16 -17 -17 -15 -15
-17 -17 -18 -18 -19 -19 -20 -19 -20 -20 -20 -20 -20 -20 -20 -21 -20 -20 -20 -20 -20 -19 -19 -20 -20 -20 -20 -20 -21 -21 -20 -20 -19 -18 -18 -18 -18 -18 -17 -17 -17 -17 -16 -16
-17 -17 -18 -18 -19 -20 -20 -19 -19 -20 -20 -20 -20 -20 -20 -20 -20 -21 -20 -20 -20 -19 -19 -20 -20 -21 -21 -21 -21 -21 -20 -20 -19 -19 -19 -18 -18 -18 -18 -18 -17 -18 -17 -16
-17 -17 -18 -19 -19 -20 -20 -19 -19 -20 -20 -20 -20 -19 -20 -20 -20 -20 -20 -20 -20 -20 -20 -19 -19 -20 -20 -19 -20 -20 -20 -20 -19 -18 -19 -18 -18 -18 -19 -18 -18 -18 -18 -17
-17 -17 -18 -19 -19 -20 -19 -19 -19 -19 -20 -19 -19 -19 -19 -19 -19 -19 -20 -20 -20 -20 -20 -19 -19 -19 -18 -18 -18 -19 -19 -19 -19 -19 -19 -19 -18 -18 -19 -19 -18 -18 -18 -18
-17 -17 -18 -19 -19 -19 -19 -19 -19 -19 -19 -19 -19 -19 -19 -19 -19 -19 -20 -20 -20 -20 -20 -20 -19 -19 -18 -18 -18 -18 -19 -18 -18 -18 -19 -18 -18 -18 -18 -18 -19 -19 -18 -18
-16 -17 -18 -19 -19 -18 -18 -18 -19 -19 -19 -18 -19 -19 -19 -19 -19 -19 -20 -20 -20 -20 -20 -20 -19 -19 -19 -20 -20 -20 -19 -19 -19 -19 -18 -18 -18 -18 -19 -19 -20 -20 -20 -20
-17 -17 -18 -19 -18 -18 -18 -18 -18 -18 -19 -19 -18 -18 -19 -19 -19 -19 -20 -20 -20 -20 -20 -20 -20 -20 -19 -19 -19 -20 -20 -19 -20 -20 -20 -20 -20 -20 -20 -20 -20 -20 -20 -20
-16 -17 -17 -18 -18 -17 -17 -18 -18 -18 -18 -18 -18 -18 -19 -19 -19 -19 -20 -20 -20 -20 -20 -20 -19 -19 -19 -19 -19 -19 -19 -19 -19 -19 -19 -19 -20 -20 -20 -20 -20 -20 -20 -20
-16 -17 -17 -17 -17 -17 -17 -18 -18 -18 -18 -18 -18 -18 -19 -19 -19 -20 -20 -20 -20 -20 -20 -20 -20 -20 -20 -20 -20 -20 -20 -20 -20 -20 -20 -20 -20 -20 -20 -19 -19 -19 -20 -20
Height
5748 5744 5740 5736 5731 5726 5720 5714 5708 5699 5691 5686 5672 5666 5650 5641 5632 5623 5618 5612 5608 5605 5605 5608 5612 5617 5623 5630 5635 5642 5651 5660 5666 5671 5676 5683 5690 5694 5698 5701 5705 5710 5714 5718
5743 5738 5734 5728 5722 5716 5709 5702 5694 5686 5673 5664 5653 5644 5631 5625 5619 5613 5608 5600 5593 5586 5580 5579 5583 5589 5596 5604 5613 5620 5629 5639 5648 5656 5663 5670 5676 5681 5687 5690 5693 5699 5704 5708
5736 5732 5726 5720 5714 5707 5698 5688 5678 5666 5659 5642 5633 5633 5623 5618 5612 5606 5600 5592 5584 5577 5572 5566 5562 5561 5569 5577 5587 5598 5607 5617 5629 5639 5648 5660 5662 5666 5672 5674 5680 5687 5693 5696
5729 5724 5718 5713 5706 5697 5686 5675 5661 5646 5635 5634 5628 5623 5620 5610 5604 5597 5590 5583 5575 5567 5561 5556 5551 5548 5545 5550 5562 5574 5585 5597 5610 5620 5631 5642 5650 5656 5662 5668 5675 5677 5681 5683
5723 5717 5712 5706 5697 5687 5676 5660 5644 5633 5629 5630 5625 5619 5615 5606 5600 5590 5582 5573 5565 5557 5549 5543 5538 5535 5532 5530 5537 5548 5562 5576 5589 5601 5612 5624 5637 5630 5650 5654 5662 5665 5670 5675
5716 5712 5706 5698 5687 5674 5661 5647 5633 5629 5629 5627 5620 5614 5608 5599 5591 5582 5572 5562 5553 5545 5537 5530 5523 5519 5518 5516 5518 5526 5541 5556 5570 5583 5596 5608 5619 5629 5623 5639 5653 5658 5662 5668
5712 5706 5699 5690 5678 5664 5648 5637 5633 5632 5627 5624 5616 5609 5602 5592 5580 5569 5558 5548 5538 5527 5517 5510 5506 5501 5500 5500 5501 5508 5521 5537 5552 5567 5580 5593 5605 5614 5621 5630 5638 5643 5651 5658
5707 5699 5690 5680 5669 5657 5643 5639 5635 5629 5622 5619 5613 5602 5594 5583 5574 5561 5547 5536 5527 5518 5508 5497 5489 5486 5483 5485 5486 5492 5505 5520 5536 5550 5564 5576 5589 5600 5610 5621 5629 5637 5642 5650
5699 5693 5684 5674 5662 5651 5644 5639 5634 5626 5620 5611 5605 5596 5588 5580 5566 5552 5541 5530 5520 5510 5499 5488 5478 5469 5468 5470 5474 5477 5491 5505 5523 5538 5550 5563 5575 5587 5598 5608 5617 5625 5632 5639
5694 5687 5678 5669 5657 5649 5644 5638 5632 5625 5615 5606 5602 5591 5581 5571 5557 5544 5532 5523 5512 5500 5490 5478 5467 5458 5453 5454 5461 5466 5476 5492 5508 5525 5539 5551 5562 5576 5587 5595 5605 5614 5621 5627
5689 5682 5674 5664 5655 5647 5641 5636 5630 5624 5616 5605 5593 5588 5578 5567 5552 5540 5527 5515 5503 5492 5480 5467 5454 5444 5442 5441 5450 5457 5465 5480 5497 5514 5529 5542 5553 5566 5575 5584 5593 5602 5610 5616
5685 5677 5669 5660 5651 5645 5639 5634 5628 5620 5613 5603 5594 5589 5573 5564 5552 5537 5521 5507 5494 5483 5470 5456 5441 5432 5432 5433 5442 5451 5460 5471 5487 5504 5520 5533 5545 5555 5565 5574 5583 5591 5598 5605
5680 5674 5666 5658 5651 5643 5637 5632 5626 5618 5610 5603 5591 5585 5575 5565 5551 5535 5517 5501 5486 5478 5466 5451 5436 5430 5430 5432 5441 5450 5457 5466 5481 5496 5510 5523 5534 5545 5555 5566 5575 5582 5588 5595
5675 5669 5661 5652 5646 5639 5634 5629 5623 5616 5607 5599 5588 5578 5571 5561 5549 5533 5519 5500 5485 5476 5465 5451 5440 5435 5432 5437 5444 5450 5457 5465 5476 5490 5504 5516 5527 5537 5548 5557 5566 5575 5581 5585
5671 5665 5657 5648 5642 5634 5631 5626 5621 5614 5605 5596 5590 5578 5570 5558 5547 5534 5518 5502 5489 5478 5468 5456 5446 5441 5441 5444 5449 5454 5460 5467 5476 5488 5500 5511 5522 5531 5541 5550 5559 5569 5575 5577
5667 5660 5654 5647 5639 5632 5628 5624 5619 5613 5604 5596 5587 5581 5569 5559 5550 5537 5523 5506 5491 5481 5473 5465 5458 5454 5453 5453 5456 5459 5464 5470 5478 5488 5499 5509 5518 5527 5537 5546 5553 5561 5565 5570
5663 5655 5650 5645 5636 5630 5627 5623 5618 5611 5603 5595 5587 5579 5573 5563 5552 5539 5528 5512 5496 5483 5477 5472 5469 5466 5464 5464 5464 5466 5469 5475 5482 5491 5500 5508 5518 5523 5533 5542 5549 5555 5563 5565
5658 5651 5646 5641 5633 5628 5623 5620 5615 5609 5602 5594 5587 5579 5572 5563 5554 5543 5534 5522 5506 5490 5483 5479 5476 5475 5473 5473 5472 5472 5476 5480 5486 5494 5503 5511 5517 5524 5528 5537 5543 5550 5556 5560
5654 5648 5641 5637 5631 5626 5621 5618 5614 5608 5602 5594 5589 5582 5576 5568 5559 5551 5540 5529 5518 5504 5494 5488 5485 5482 5480 5479 5478 5479 5481 5488 5492 5498 5506 5512 5517 5524 5529 5534 5538 5545 5550 5556
5649 5644 5639 5633 5627 5622 5619 5616 5612 5607 5602 5595 5591 5585 5580 5572 5565 5558 5547 5538 5529 5519 5509 5500 5496 5493 5490 5490 5489 5489 5491 5495 5500 5504 5509 5513 5518 5524 5528 5531 5536 5542 5548 5550
5644 5640 5636 5630 5623 5620 5616 5613 5610 5607 5604 5596 5592 5587 5580 5575 5568 5561 5553 5545 5537 5530 5524 5515 5508 5504 5501 5500 5500 5502 5503 5505 5508 5511 5513 5516 5520 5523 5527 5531 5533 5539 5542 5544
5640 5636 5632 5626 5620 5618 5614 5612 5609 5606 5601 5596 5592 5588 5582 5576 5570 5564 5557 5551 5545 5539 5533 5528 5523 5517 5512 5510 5509 5511 5513 5514 5515 5517 5519 5521 5523 5525 5529 5531 5534 5537 5540 5541
5635 5634 5629 5624 5618 5615 5613 5610 5607 5603 5600 5596 5592 5588 5583 5578 5573 5568 5562 5557 5552 5547 5542 5538 5534 5529 5527 5523 5520 5520 5519 5518 5518 5519 5521 5523 5524 5526 5528 5530 5532 5534 5535 5537
5631 5628 5625 5619 5616 5613 5611 5609 5606 5602 5599 5595 5592 5588 5584 5580 5575 5571 5566 5562 5557 5553 5549 5545 5541 5537 5535 5533 5531 5530 5528 5527 5527 5526 5526 5526 5527 5528 5529 5531 5533 5534 5536 5536
5627 5624 5621 5617 5613 5611 5609 5607 5604 5601 5598 5595 5592 5588 5584 5580 5577 5573 5569 5565 5561 5557 5553 5550 5547 5544 5541 5539 5537 5535 5533 5532 5531 5531 5531 5531 5531 5532 5533 5533 5534 5534 5534 5534
5622 5620 5617 5613 5611 5609 5608 5605 5603 5600 5597 5594 5591 5588 5584 5581 5577 5573 5570 5566 5562 5559 5555 5552 5549 5547 5545 5542 5540 5537 5535 5534 5533 5532 5532 5532 5532 5532 5533 5533 5532 5532 5531 5530
Wind_Speed
31 32 35 36 39 39 41 46 49 56 61 64 70 73 71 64 59 56 58 61 67 75 77 79 78 77 76 75 75 75 73 70 66 66 69 57 57 57 58 61 59 55 54 51
33 34 37 38 39 43 49 53 58 62 69 71 68 49 41 36 28 26 30 36 33 34 47 58 76 79 82 80 77 78 76 74 71 64 68 69 59 55 67 56 61 59 59 57
33 37 39 40 43 49 55 61 65 69 69 49 37 30 32 34 30 36 39 42 40 35 33 37 48 64 79 85 83 79 78 77 75 72 69 63 62 64 52 58 47 53 59 57
35 38 40 44 49 54 60 66 69 68 43 22 29 33 34 39 41 41 42 43 45 44 41 37 35 40 52 77 85 84 80 78 76 75 72 65 63 71 48 54 58 57 54 53
36 38 43 48 53 58 65 71 69 42 23 19 25 34 28 37 37 38 41 44 41 40 42 46 44 40 40 54 77 85 84 80 78 77 76 73 70 52 67 56 56 46 47 53
35 38 45 50 56 64 70 66 34 20 17 21 29 34 32 35 38 40 40 43 44 42 41 41 44 46 42 42 56 75 83 81 78 77 77 74 72 71 49 62 59 40 43 45
35 41 46 52 60 66 65 32 15 19 25 29 31 32 33 38 44 47 47 46 44 42 41 41 43 48 45 40 45 63 76 80 78 75 75 75 73 72 71 55 60 44 50 48
36 43 49 55 61 63 35 18 22 29 37 33 28 34 39 45 45 46 48 41 37 35 35 38 40 45 50 39 41 55 69 76 78 74 73 73 74 71 69 63 62 63 51 55
39 44 49 55 59 45 17 22 27 34 35 33 34 35 39 42 48 48 35 35 38 41 41 44 40 37 42 42 39 46 64 70 75 73 71 70 72 71 68 62 58 60 62 59
39 43 49 52 50 22 19 23 30 35 39 39 32 35 40 48 53 53 42 42 40 39 43 38 40 36 31 39 34 43 53 64 72 72 70 69 68 68 66 65 61 56 57 56
39 43 46 47 41 15 20 25 29 32 35 39 40 37 40 47 54 56 44 41 41 42 44 46 43 32 26 25 28 34 44 55 65 66 66 64 63 63 64 65 62 60 57 59
37 42 44 39 33 19 21 24 30 33 37 38 38 33 42 48 50 56 52 47 44 43 44 49 42 23 17 15 21 22 36 46 55 60 61 60 59 58 59 59 61 60 59 57
36 41 44 40 37 20 22 24 29 32 35 36 39 36 37 46 49 55 58 52 39 35 41 45 31 15 9 9 14 19 22 40 47 52 56 57 56 55 55 55 54 57 58 57
36 38 39 43 40 20 19 25 29 32 37 38 38 41 41 47 47 53 56 48 37 32 41 42 24 16 12 15 15 19 19 34 42 46 50 53 52 52 51 51 52 50 47 52
34 35 36 39 39 21 16 23 27 32 36 39 34 37 41 46 42 49 56 47 38 27 39 39 22 17 21 18 15 18 15 26 37 41 44 47 48 47 47 48 49 45 35 45
32 36 36 34 36 18 14 21 26 30 34 37 35 32 39 37 38 43 53 51 39 26 30 31 22 24 16 13 13 13 11 19 31 37 39 42 42 42 42 43 44 42 34 31
32 36 37 33 34 18 15 19 25 30 33 35 33 32 31 33 37 42 47 54 50 26 17 24 19 17 15 12 12 14 15 15 22 25 27 32 35 37 36 41 43 49 43 31
31 35 36 33 32 19 17 19 24 27 32 32 27 27 33 37 40 41 39 49 53 42 19 25 18 14 11 11 13 17 20 18 19 24 32 27 18 22 30 32 43 41 36 40
29 33 35 34 29 24 18 19 21 25 29 25 18 21 30 36 37 33 37 42 47 50 31 22 27 22 22 18 10 25 26 19 22 27 33 29 17 23 24 31 35 44 43 38
28 31 33 31 30 27 14 17 20 23 25 20 13 16 26 32 30 28 32 36 39 45 46 24 30 24 25 33 26 23 27 30 24 26 20 22 19 22 17 17 33 34 45 25
27 30 30 29 30 23 14 18 19 21 21 14 13 17 28 28 25 26 27 29 34 38 40 43 33 24 21 21 24 21 22 25 23 21 19 20 19 12 13 14 24 31 32 39
25 30 29 29 29 18 12 16 17 18 18 12 12 19 24 23 23 24 26 26 28 31 33 33 35 34 31 24 22 21 23 18 17 17 17 15 11 18 17 15 13 17 23 23
23 27 28 27 24 9 11 15 15 15 14 10 13 21 19 19 21 20 22 24 26 28 30 30 29 28 26 28 29 27 16 12 11 11 9 13 13 13 13 17 19 20 19 16
21 24 26 26 17 10 12 15 15 15 12 13 16 15 15 17 18 17 19 20 21 22 23 25 24 24 24 22 21 19 17 16 15 15 14 16 19 17 12 10 10 10 10 8
20 18 24 23 8 10 11 13 14 14 13 17 15 14 14 13 12 13 14 15 15 16 17 18 19 20 19 18 16 15 14 14 12 10 6 4 2 5 6 5 5 8 13 15
16 15 18 13 9 11 12 15 15 15 14 13 13 13 12 14 15 14 15 17 18 17 17 18 19 19 17 16 17 16 16 14 12 10 7 5 3 6 8 10 12 14 16 17
Wind_Direction
315 317 316 314 312 309 307 307 307 306 305 305 302 302 298 297 293 289 286 284 276 266 260 253 248 246 243 241 240 240 239 236 236 239 241 235 233 240 246 244 235 238 242 242
316 317 316 316 313 312 312 312 310 309 309 308 305 306 304 308 304 314 319 318 315 308 278 262 249 243 239 238 236 237 236 234 232 234 239 239 236 233 241 240 236 238 241 242
318 319 319 317 316 315 317 316 315 313 312 307 305 324 317 321 310 316 318 316 313 307 311 293 264 242 236 236 233 232 234 232 231 230 234 241 235 236 237 239 225 240 240 238
321 322 321 318 318 320 318 318 320 317 313 308 319 321 322 313 312 311 309 304 306 302 299 293 285 272 253 234 234 229 230 231 229 228 228 229 243 237 234 229 238 235 228 240
326 325 321 320 321 321 324 325 322 319 315 321 313 314 328 311 310 305 304 302 302 298 290 287 284 278 265 250 232 230 226 227 228 226 225 227 230 237 237 235 235 229 228 238
326 323 322 323 325 329 332 326 332 344 327 325 326 329 326 322 319 317 319 317 312 303 293 284 279 278 269 263 246 230 226 224 226 226 225 224 227 231 234 232 240 236 234 238
324 324 324 327 331 335 333 345 358 356 343 343 337 336 332 333 338 332 325 323 321 315 302 281 269 264 268 260 246 235 226 222 223 225 225 225 224 227 233 234 232 226 243 244
324 326 331 333 337 339 344 10 357 349 341 339 347 342 345 347 338 335 333 334 329 326 323 317 290 267 262 259 243 236 226 221 220 222 223 224 222 224 229 230 231 234 238 241
328 331 334 337 342 344 11 0 350 341 341 347 357 344 348 347 353 345 332 334 335 331 326 322 309 297 265 259 247 226 227 220 219 220 221 223 224 223 225 229 229 230 232 238
332 334 337 340 347 348 357 354 350 347 347 342 355 345 346 344 348 349 334 330 327 330 332 325 318 299 287 258 246 227 219 220 217 217 221 221 222 222 224 226 228 228 233 235
333 336 339 345 348 340 348 351 348 348 348 340 343 351 345 341 348 345 337 327 326 327 326 336 325 299 280 260 239 233 211 212 216 215 218 222 222 223 223 225 227 227 231 235
333 336 340 347 344 321 334 343 344 348 347 342 338 349 344 342 345 348 348 333 324 328 329 338 331 302 273 248 217 220 210 203 210 212 214 219 221 222 225 225 225 228 230 234
333 335 338 343 345 313 320 335 342 345 343 344 335 345 340 338 343 350 350 346 337 335 338 346 348 339 319 176 184 191 208 197 203 207 210 214 219 220 221 224 226 227 230 234
333 335 339 338 342 322 318 331 342 345 344 343 337 340 345 341 347 357 357 357 354 348 354 358 7 14 82 133 146 170 193 196 195 203 206 210 215 218 219 219 223 224 235 236
329 336 340 336 340 327 322 330 338 342 343 342 343 338 342 346 356 3 359 5 1 359 7 9 15 70 97 112 141 164 178 195 191 196 201 206 212 215 217 218 220 222 230 237
328 334 337 337 338 323 318 326 335 340 341 344 346 349 351 348 359 6 4 12 7 5 6 23 55 81 92 112 134 138 148 185 188 191 196 201 209 213 214 216 207 200 217 232
327 332 334 338 337 318 309 323 335 339 343 346 351 358 2 7 8 11 12 17 19 12 16 29 55 71 80 80 108 123 123 149 177 184 188 197 190 212 211 203 215 217 220 229
326 329 330 338 335 325 304 325 336 341 347 347 355 12 5 5 8 10 13 16 20 27 40 45 48 52 52 62 85 107 115 123 151 162 173 182 166 185 210 204 214 209 220 223
322 327 326 333 337 330 305 316 332 342 346 350 7 16 355 357 1 7 20 24 26 31 38 39 42 48 60 50 81 127 120 132 134 149 170 182 180 189 189 214 220 207 221 228
319 323 323 331 337 330 305 312 334 341 348 356 12 6 354 354 1 11 25 29 31 36 41 58 61 76 92 74 83 113 124 121 120 161 153 136 144 177 207 217 209 217 224 240
313 319 321 328 333 334 302 309 332 339 346 4 4 355 348 359 1 8 20 28 37 40 37 47 54 50 49 58 73 97 129 113 129 137 148 149 151 160 162 188 220 221 231 250
309 316 322 328 330 334 292 307 329 341 345 0 351 348 351 357 3 8 20 28 32 42 46 40 49 56 59 73 83 95 119 121 130 133 142 157 180 203 213 205 202 216 239 240
307 311 321 326 331 305 291 314 330 335 343 343 336 338 348 356 2 11 27 38 42 41 46 50 50 55 60 73 79 82 104 109 118 146 173 186 196 191 202 183 171 172 184 201
299 313 320 325 321 279 282 310 321 328 337 336 336 339 347 357 4 21 30 34 39 42 39 40 43 48 55 51 53 52 55 62 79 94 106 121 137 142 149 153 165 184 192 201
294 313 312 321 281 259 287 309 310 316 316 322 326 336 343 358 14 24 24 24 23 25 28 30 31 31 33 39 44 45 43 38 33 32 35 27 71 25 3 359 327 306 298 291
289 304 312 314 235 256 285 301 305 308 308 314 327 340 357 0 352 353 357 358 358 3 9 12 16 19 22 19 20 23 23 24 24 23 17 1 336 323 312 304 297 294 300 307